This is the latest recevied weather packets stored in our database for station/object K0SNA. If no packets are shown the sender has not sent any weather packets the latest 10 day(s).
| Time | Temp. | Humidity | Pressure | Rain* | Wind** | Luminosity | Snow |
|---|---|---|---|---|---|---|---|
| 1778223652 | 7.78° C | 44% | 1009 hPa | 0 mm | - | 0 W/m² | - |
| 1778223349 | 7.22° C | 46% | 1009.2 hPa | 0 mm | - | 0 W/m² | - |
| 1778223047 | 7.78° C | 45% | 1009 hPa | 0 mm | - | 0 W/m² | - |
| 1778222745 | 7.22° C | 45% | 1009 hPa | 0 mm | - | 0 W/m² | - |
| 1778222442 | 7.22° C | 47% | 1009.2 hPa | 0 mm | - | 0 W/m² | - |
| 1778222139 | 7.22° C | 48% | 1009 hPa | 0 mm | - | 0 W/m² | - |
| 1778221838 | 7.22° C | 47% | 1009.1 hPa | 0 mm | - | 0 W/m² | - |
| 1778221535 | 7.22° C | 48% | 1009.2 hPa | 0 mm | - | 0 W/m² | - |
| 1778221231 | 7.22° C | 47% | 1009.3 hPa | 0 mm | - | 0 W/m² | - |
| 1778220929 | 7.22° C | 47% | 1009.2 hPa | 0 mm | - | 0 W/m² | - |
| 1778220626 | 6.67° C | 49% | 1009.4 hPa | 0 mm | - | 0 W/m² | - |
| 1778220323 | 7.22° C | 50% | 1009.5 hPa | 0 mm | - | 0 W/m² | - |
| 1778220020 | 6.67° C | 50% | 1009.3 hPa | 0 mm | - | 0 W/m² | - |
| 1778219715 | 6.67° C | 50% | 1009.4 hPa | 0 mm | - | 0 W/m² | - |
| 1778219413 | 7.22° C | 50% | 1009.5 hPa | 0 mm | - | 0 W/m² | - |
| 1778219109 | 7.22° C | 50% | 1009.5 hPa | 0 mm | - | 0 W/m² | - |
| 1778218807 | 6.67° C | 51% | 1009.3 hPa | 0 mm | - | 0 W/m² | - |
| 1778218503 | 6.67° C | 52% | 1009.5 hPa | 0 mm | - | 0 W/m² | - |
| 1778218201 | 6.67° C | 51% | 1009.4 hPa | 0 mm | - | 0 W/m² | - |
| 1778217898 | 6.67° C | 52% | 1009.7 hPa | 0 mm | - | 0 W/m² | - |
| 1778217595 | 6.67° C | 52% | 1009.8 hPa | 0 mm | - | 0 W/m² | - |
| 1778217290 | 6.67° C | 52% | 1009.7 hPa | 0 mm | - | 0 W/m² | - |
| 1778216986 | 6.11° C | 53% | 1009.5 hPa | 0 mm | - | 0 W/m² | - |
| 1778216683 | 6.67° C | 52% | 1009.8 hPa | 0 mm | - | 0 W/m² | - |
| 1778216380 | 6.67° C | 52% | 1009.7 hPa | 0 mm | - | 0 W/m² | - |
* Rain latest hour (hover to see other rain measurements)
** Current wind speed in m/s (hover to see current wind gust speed)